This demonstration page uses our WeatherBlox Daily Observations layout. Learn more.

Hourly Observations for August 17, 2015

Temp ( °F °C ) Dew Point ( °F °C ) Humidity (%) Winds ( mph kmh ) Pressure ( in mb ) Visibility ( mi km ) Precip ( " mm )
12:15 am 00:15 Clear 68 19.8 66 18.7 93 93 NNE 8 13 30 1016 10 16.0934 0 0
12:35 am 00:35 Partly Cloudy 67 19.5 65 18.5 94 94 NNE 9 15 30 1016 10 16.0934 0 0
12:55 am 00:55 Mostly Cloudy 67 19.5 65 18.5 94 94 NNE 10 17 30 1016 7 11.26538 0 0
1:15 am 01:15 Cloudy with Mist and Fog 67 19.5 65 18.6 95 95 NNE 7 11 30 1016 1 1.60934 0 0
1:35 am 01:35 Cloudy with Mist and Fog 67 19.7 66 19 96 96 NNE 7 11 30 1016 2 3.21868 0 0
1:55 am 01:55 Cloudy with Mist and Fog 68 19.8 66 19 95 95 NNE 7 11 29.94 1014 3 4.82802 0 0
2:15 am 02:15 Cloudy with Mist and Fog 68 20 66 19.1 95 95 NNE 9 15 29.94 1014 3 4.82802 0 0
2:35 am 02:35 Cloudy with Mist and Fog 68 20 66 19.1 95 95 N 7 11 29.94 1014 3 4.82802 0 0
2:55 am 02:55 Cloudy with Mist and Fog 68 20 66 19.1 95 95 NE 8 13 29.94 1014 4 6.43736 0 0
3:15 am 03:15 Cloudy with Mist and Fog 67 19.7 66 19 96 96 NNE 8 13 29.94 1014 0.75 1.207005 0 0
3:35 am 03:35 Cloudy with Mist and Fog 67 19.7 66 19 96 96 N 9 15 29.94 1014 0.75 1.207005 0 0
3:55 am 03:55 Cloudy with Mist and Fog 67 19.6 66 18.9 96 96 NE 9 15 29.91 1013 2.5 4.02335 0 0
4:15 am 04:15 Cloudy with Mist and Fog 67 19.6 66 18.9 96 96 NNE 9 15 29.94 1014 3 4.82802 0 0
4:35 am 04:35 Cloudy with Mist and Fog 67 19.6 66 18.8 95 95 N 9 15 29.94 1014 2.5 4.02335 0 0
4:55 am 04:55 Cloudy with Mist and Fog 66 19.1 65 18.3 95 95 NNE 9 15 29.97 1015 1 1.60934 0 0
5:15 am 05:15 Cloudy with Mist and Fog 66 18.8 64 18 95 95 NE 10 17 29.97 1015 1 1.60934 0 0
5:35 am 05:35 Cloudy with Mist and Fog 65 18.5 64 17.8 96 96 NNE 10 17 29.97 1015 0.75 1.207005 0 0
5:55 am 05:55 Cloudy with Fog 65 18.3 64 17.6 96 96 NNE 8 13 29.97 1015 0.5 0.80467 0 0
6:15 am 06:15 Cloudy with Mist and Fog 64 18 63 17.3 96 96 NNE 9 15 29.97 1015 0.75 1.207005 0 0
6:35 am 06:35 Cloudy with Mist and Fog 64 17.9 63 17.2 96 96 NNE 9 15 29.97 1015 0.75 1.207005 0 0
6:55 am 06:55 Cloudy with Mist and Fog 64 17.6 63 17 96 96 N 10 17 29.97 1015 0.75 1.207005 0 0
7:15 am 07:15 Cloudy with Mist and Fog 64 17.5 62 16.8 96 96 N 8 13 29.97 1015 0.75 1.207005 0 0
7:35 am 07:35 Cloudy with Fog 63 17.3 62 16.7 96 96 NNE 5 7 29.97 1015 0.5 0.80467 0 0
7:55 am 07:55 Cloudy with Fog 63 17.2 62 16.6 96 96 N 8 13 30 1016 0.5 0.80467 0 0
8:15 am 08:15 Cloudy with Fog 63 17.2 62 16.6 96 96 N 8 13 30 1016 0.5 0.80467 0 0
8:35 am 08:35 Cloudy with Fog 63 17.2 62 16.6 96 96 N 7 11 30 1016 0.5 0.80467 0 0
8:55 am 08:55 Cloudy with Light Rain 63 17.1 62 16.5 96 96 N 8 13 30 1016 0.5 0.80467 0 0
9:35 am 09:35 Cloudy with Fog 63 17.2 62 16.6 96 96 N 7 11 29.97 1015 0.5 0.80467 0 0
9:55 am 09:55 Cloudy with Fog 63 17.2 62 16.6 96 96 NNE 9 15 29.97 1015 0.5 0.80467 0 0
10:15 am 10:15 Cloudy with Nearby Thunderstorms 63 17.1 62 16.5 96 96 N 9 15 29.97 1015 0.75 1.207005 0 0
10:35 am 10:35 Cloudy with Mist and Fog 63 17.4 62 16.8 96 96 N 8 13 29.97 1015 2 3.21868 0 0
10:55 am 10:55 Cloudy with Nearby Thunderstorms 63 17.2 62 16.6 96 96 NNE 9 15 29.97 1015 1.5 2.41401 0 0
11:15 am 11:15 Cloudy with Mist and Fog 63 17.2 62 16.6 96 96 N 6 9 30 1016 2 3.21868 0 0
11:35 am 11:35 Cloudy with Mist and Fog 63 17.3 62 16.7 96 96 NNE 7 11 29.97 1015 2 3.21868 0 0
11:55 am 11:55 Cloudy with Mist and Fog 64 17.5 62 16.7 95 95 NNE 9 15 29.97 1015 4 6.43736 0 0
12:15 pm 12:15 Cloudy with Mist and Fog 64 17.7 62 16.8 95 95 N 10 17 29.97 1015 5 8.0467 0 0
12:35 pm 12:35 Cloudy 64 17.8 62 16.5 92 92 N 12 19 30 1016 10 16.0934 0 0
12:55 pm 12:55 Cloudy with Mist and Fog 63 17.2 61 16 93 93 N 12 19 30 1016 4 6.43736 0 0
1:15 pm 13:15 Cloudy with Mist and Fog 63 17 61 16 94 94 N 9 15 30 1016 5 8.0467 0 0
1:35 pm 13:35 Cloudy with Mist and Fog 63 17.1 61 16.1 94 94 NNE 12 19 29.97 1015 5 8.0467 0 0
1:55 pm 13:55 Cloudy 64 17.6 61 16.2 92 92 NNE 12 19 29.97 1015 10 16.0934 0 0
2:15 pm 14:15 Cloudy 64 18 61 16 88 88 NNE 8 13 29.97 1015 10 16.0934 0 0
2:35 pm 14:35 Cloudy 64 17.6 60 15.7 89 89 NNE 9 15 29.97 1015 10 16.0934 0.03 0.762
2:55 pm 14:55 Cloudy 64 18 61 16 88 88 NNE 10 17 29.97 1015 10 16.0934 0.03 0.762
3:15 pm 15:15 Cloudy 65 18.2 61 16 87 87 N 8 13 29.97 1015 10 16.0934 0 0
3:35 pm 15:35 Cloudy 64 18 60 15.8 87 87 NNE 10 17 29.97 1015 10 16.0934 0 0
3:55 pm 15:55 Cloudy 64 17.8 60 15.8 88 88 NNE 7 11 29.94 1014 10 16.0934 0 0
4:15 pm 16:15 Cloudy 64 18 61 15.9 88 88 NE 8 13 29.94 1014 10 16.0934 0 0
4:35 pm 16:35 Cloudy 65 18.1 61 16 88 88 NE 9 15 29.94 1014 10 16.0934 0 0
4:55 pm 16:55 Cloudy 64 18 61 16 88 88 NE 5 7 29.94 1014 10 16.0934 0 0
5:15 pm 17:15 Cloudy 64 17.9 61 15.9 88 88 NE 8 13 29.94 1014 10 16.0934 0 0
5:35 pm 17:35 Cloudy 64 17.6 61 15.9 90 90 NNE 10 17 29.91 1013 10 16.0934 0 0
5:55 pm 17:55 Cloudy 64 17.5 60 15.8 90 90 N 9 15 29.91 1013 10 16.0934 0 0
6:15 pm 18:15 Cloudy 63 17.3 60 15.7 90 90 NNE 10 17 29.91 1013 10 16.0934 0 0
6:35 pm 18:35 Cloudy 63 17.2 60 15.6 90 90 NNE 10 17 29.88 1012 10 16.0934 0 0
6:55 pm 18:55 Cloudy 63 17.2 60 15.6 90 90 N 9 15 29.88 1012 7 11.26538 0 0
7:15 pm 19:15 Cloudy 63 17.2 60 15.5 90 90 NE 9 15 29.91 1013 7 11.26538 0 0
7:35 pm 19:35 Cloudy 63 17.2 60 15.7 91 91 NNE 9 15 29.91 1013 7 11.26538 0 0
7:55 pm 19:55 Cloudy 63 17 60 15.5 91 91 NE 9 15 29.91 1013 7 11.26538 0 0
8:15 pm 20:15 Cloudy 62 16.8 60 15.5 92 92 NNE 8 13 29.91 1013 7 11.26538 0 0
8:35 pm 20:35 Cloudy 62 16.8 60 15.5 92 92 ENE 8 13 29.88 1012 7 11.26538 0 0
8:55 pm 20:55 Cloudy 62 16.6 60 15.5 93 93 NE 6 9 29.88 1012 7 11.26538 0 0
9:15 pm 21:15 Cloudy 62 16.7 60 15.5 93 93 NNE 8 13 29.88 1012 7 11.26538 0 0
9:35 pm 21:35 Cloudy 62 16.7 60 15.5 93 93 NE 8 13 29.88 1012 7 11.26538 0 0
9:55 pm 21:55 Cloudy with Mist and Fog 62 16.7 60 15.6 93 93 NE 8 13 29.88 1012 5 8.0467 0 0
10:15 pm 22:15 Cloudy with Mist and Fog 62 16.6 60 15.6 94 94 NE 7 11 29.88 1012 5 8.0467 0 0
10:35 pm 22:35 Cloudy with Mist and Fog 62 16.8 60 15.8 94 94 ENE 6 9 29.88 1012 5 8.0467 0 0
10:55 pm 22:55 Cloudy 62 16.8 60 15.7 93 93 NE 8 13 29.88 1012 7 11.26538 0 0
11:15 pm 23:15 Cloudy 62 16.8 60 15.7 93 93 ENE 8 13 29.88 1012 7 11.26538 0 0
11:35 pm 23:35 Cloudy 62 16.8 60 15.8 94 94 NE 8 13 29.88 1012 7 11.26538 0 0
11:55 pm 23:55 Cloudy with Mist and Fog 62 16.7 60 15.7 94 94 ENE 13 20 29.85 1011 5 8.0467 0 0

Powered by AerisWeather